Weather in Gus'-Zheleznyy

Russia / Ryazan Oblast     55°03′25″N   41°09′49″E
temp.,
°C
wind,
m/s
gust,
m/s
humid.,
%
clouds,
%
prec.,
mm/h
press.,
hPa
HPBL,
m
4 august, wed
wed400:00+16wnw2477100 0.0 101285
03:00+16wnw2576100 0.0 1013103
06:00+15nw2672100 0.0 1014153
09:00+21nw23465 0.0 1015749
12:00+25w243674 0.0 10142575
15:00+21wnw3653100 0.0 1015291
18:00+22nw124711 0.0 1015395
21:00+16nw226862 0.0 101614
5 august, thu
thu500:00+15nw2267100 0.0 101713
03:00+14nnw2269100 0.0 101730
06:00+15nw11715 0.0 101819
09:00+22sw114788 0.0 1018529
12:00+26ssw123499 0.0 10172198
15:00+24wsw1242100 0.0 10171602
18:00+23e224899 0.0 1016140
21:00+18ese2459100 0.0 101660
6 august, fri
fri600:00+18se2659100 0.0 1016137
03:00+18ne2360100 0.0 101548
06:00+16ese3668100 0.1 1015148
09:00+19sse41259100 0.1 1014571
12:00+17sw1376100 0.3 1015126
15:00+17e3484100 0.8 1014150
18:00+16ene3784100 0.0 1013172
21:00+17ne3881100 0.0 1012194
7 august, sat
sat700:00+16ene3585100 0.0 1012117
03:00+16ene378599 0.0 1013143
06:00+17se2481100 0.2 1013117
09:00+20sse2468100 0.3 1014127
12:00+26se3540100 0.0 1014686
15:00+30sse453029 0.0 10131442
18:00+28se384199 0.0 1013366
21:00+21ese31159100 0.0 1013202
8 august, sun
sun800:00+19ese3959100 0.0 1014162
03:00+18ese3959100 0.0 1014164
06:00+18e2662100 0.0 1014136
09:00+24ese3544100 0.0 1013359
12:00+27se4637100 0.0 1013630
15:00+27ese1444100 0.0 1013271
18:00+24ene3649100 0.0 1012103
21:00+22e3749100 0.0 1013148